Back to catalog

GLOBALSTAR M004

AliveCommunicationsLEO
NORAD 25163·PAYLOAD·🇺🇸 United States

Launched Feb 14, 1998 from Cape Canaveral Space Force Station

Loading…

Next Passes (next 24 hours)

TLE

FreshSource: Space-Track

Epoch: Sep 13, 2026, 20:26 UTC

1 25163U 98008B   26256.85164453 -.00000055  00000-0  26819-3 0  9999
2 25163  51.9996 110.0964 0002696 204.0217 171.2739 12.63425669319038

Track GLOBALSTAR M004 in real time with AllMySat

Download on the App Store